Time,TemperatureF,DewpointF,PressureIn,WindDirection,WindDirectionDegrees,WindSpeedMPH,WindSpeedGustMPH,Humidity,HourlyPrecipIn,Conditions,Clouds,dailyrainin,SoftwareType,DateUTC
2013-09-27 00:09:00,47.9,47.0,30.12,East,79,0.0,1.0,96,0.00,,,0.00,weatherlink.com 1.10,2013-09-27 04:09:00,
2013-09-27 00:24:00,48.1,47.0,30.12,East,79,2.0,2.0,97,0.00,,,0.00,weatherlink.com 1.10,2013-09-27 04:24:00,
2013-09-27 00:39:00,48.5,48.0,30.12,East,79,0.0,3.0,96,0.00,,,0.00,weatherlink.com 1.10,2013-09-27 04:39:00,
2013-09-27 00:54:00,48.1,47.0,30.12,East,79,0.0,1.0,96,0.00,,,0.00,weatherlink.com 1.10,2013-09-27 04:54:00,
2013-09-27 01:24:00,47.2,46.0,30.12,East,79,0.0,1.0,97,0.00,,,0.00,weatherlink.com 1.10,2013-09-27 05:24:00,
2013-09-27 01:39:00,47.0,46.0,30.12,East,79,0.0,0.0,97,0.00,,,0.00,weatherlink.com 1.10,2013-09-27 05:39:00,
2013-09-27 01:54:00,46.7,46.0,30.13,East,79,0.0,0.0,97,0.00,,,0.00,weatherlink.com 1.10,2013-09-27 05:54:00,
2013-09-27 02:09:00,46.7,46.0,30.13,East,79,0.0,0.0,97,0.00,,,0.00,weatherlink.com 1.10,2013-09-27 06:09:00,
2013-09-27 02:24:00,46.6,46.0,30.13,East,79,0.0,2.0,97,0.00,,,0.00,weatherlink.com 1.10,2013-09-27 06:24:00,
2013-09-27 02:39:00,47.5,47.0,30.13,East,79,2.0,3.0,98,0.00,,,0.00,weatherlink.com 1.10,2013-09-27 06:39:00,
2013-09-27 02:54:00,47.1,46.0,30.13,East,79,1.0,2.0,97,0.00,,,0.00,weatherlink.com 1.10,2013-09-27 06:54:00,
2013-09-27 03:09:00,46.2,45.0,30.13,East,79,1.0,1.0,97,0.00,,,0.00,weatherlink.com 1.10,2013-09-27 07:09:00,
2013-09-27 03:24:00,46.7,46.0,30.13,East,79,0.0,1.0,98,0.00,,,0.00,weatherlink.com 1.10,2013-09-27 07:24:00,
2013-09-27 03:39:00,46.4,46.0,30.14,East,79,0.0,1.0,98,0.00,,,0.00,weatherlink.com 1.10,2013-09-27 07:39:00,
2013-09-27 03:54:00,46.6,46.0,30.14,East,79,1.0,1.0,98,0.00,,,0.00,weatherlink.com 1.10,2013-09-27 07:54:00,
2013-09-27 04:09:00,46.7,46.0,30.14,East,79,0.0,1.0,98,0.00,,,0.00,weatherlink.com 1.10,2013-09-27 08:09:00,
2013-09-27 04:24:00,46.2,46.0,30.14,East,79,0.0,1.0,98,0.00,,,0.00,weatherlink.com 1.10,2013-09-27 08:24:00,
2013-09-27 04:39:00,46.0,46.0,30.14,East,79,0.0,0.0,98,0.00,,,0.00,weatherlink.com 1.10,2013-09-27 08:39:00,
2013-09-27 04:54:00,45.9,45.0,30.15,East,79,0.0,0.0,98,0.00,,,0.00,weatherlink.com 1.10,2013-09-27 08:54:00,
2013-09-27 05:09:00,45.5,45.0,30.15,East,79,0.0,1.0,98,0.00,,,0.00,weatherlink.com 1.10,2013-09-27 09:09:00,
2013-09-27 05:24:00,46.3,46.0,30.15,East,79,1.0,2.0,98,0.00,,,0.00,weatherlink.com 1.10,2013-09-27 09:24:00,
2013-09-27 05:39:00,46.0,46.0,30.15,East,79,0.0,1.0,98,0.00,,,0.00,weatherlink.com 1.10,2013-09-27 09:39:00,
2013-09-27 05:54:00,46.1,46.0,30.15,East,79,0.0,1.0,98,0.00,,,0.00,weatherlink.com 1.10,2013-09-27 09:54:00,
2013-09-27 06:09:00,45.6,45.0,30.16,East,79,0.0,0.0,98,0.00,,,0.00,weatherlink.com 1.10,2013-09-27 10:09:00,
2013-09-27 06:24:00,45.8,45.0,30.16,East,79,0.0,1.0,98,0.00,,,0.00,weatherlink.com 1.10,2013-09-27 10:24:00,
2013-09-27 06:39:00,45.5,45.0,30.16,East,79,0.0,1.0,98,0.00,,,0.00,weatherlink.com 1.10,2013-09-27 10:39:00,
2013-09-27 06:55:00,45.8,45.0,30.17,East,79,0.0,1.0,98,0.00,,,0.00,weatherlink.com 1.10,2013-09-27 10:55:00,
2013-09-27 07:10:00,45.6,45.0,30.18,East,79,1.0,1.0,98,0.00,,,0.00,weatherlink.com 1.10,2013-09-27 11:10:00,
2013-09-27 07:25:00,46.3,46.0,30.18,East,79,0.0,0.0,99,0.00,,,0.00,weatherlink.com 1.10,2013-09-27 11:25:00,
2013-09-27 07:40:00,45.6,45.0,30.19,East,79,0.0,1.0,99,0.00,,,0.00,weatherlink.com 1.10,2013-09-27 11:40:00,
2013-09-27 07:55:00,46.0,46.0,30.19,East,79,0.0,0.0,98,0.00,,,0.00,weatherlink.com 1.10,2013-09-27 11:55:00,
2013-09-27 08:11:00,47.1,47.0,30.19,East,79,0.0,1.0,99,0.00,,,0.00,weatherlink.com 1.10,2013-09-27 12:11:00,
2013-09-27 08:25:00,49.4,49.0,30.19,East,79,1.0,1.0,99,0.00,,,0.00,weatherlink.com 1.10,2013-09-27 12:25:00,
2013-09-27 08:40:00,50.2,50.0,30.20,East,79,0.0,1.0,99,0.00,,,0.00,weatherlink.com 1.10,2013-09-27 12:40:00,
2013-09-27 08:55:00,53.9,54.0,30.20,East,79,1.0,1.0,99,0.00,,,0.00,weatherlink.com 1.10,2013-09-27 12:55:00,
2013-09-27 09:10:00,57.0,57.0,30.20,East,83,1.0,2.0,99,0.00,,,0.00,weatherlink.com 1.10,2013-09-27 13:10:00,
2013-09-27 09:25:00,60.2,58.0,30.20,NE,38,0.0,3.0,93,0.00,,,0.00,weatherlink.com 1.10,2013-09-27 13:25:00,
2013-09-27 09:40:00,62.2,58.0,30.20,ENE,78,4.0,6.0,87,0.00,,,0.00,weatherlink.com 1.10,2013-09-27 13:40:00,
2013-09-27 09:55:00,63.6,59.0,30.21,NNE,17,2.0,5.0,84,0.00,,,0.00,weatherlink.com 1.10,2013-09-27 13:55:00,
2013-09-27 10:10:00,64.7,58.0,30.21,SE,132,4.0,8.0,80,0.00,,,0.00,weatherlink.com 1.10,2013-09-27 14:10:00,
2013-09-27 10:25:00,65.4,59.0,30.20,ESE,119,5.0,8.0,81,0.00,,,0.00,weatherlink.com 1.10,2013-09-27 14:25:00,
2013-09-27 10:40:00,66.3,60.0,30.20,East,86,7.0,10.0,81,0.00,,,0.00,weatherlink.com 1.10,2013-09-27 14:40:00,
2013-09-27 10:55:00,66.8,60.0,30.21,East,90,4.0,10.0,80,0.00,,,0.00,weatherlink.com 1.10,2013-09-27 14:55:00,
2013-09-27 11:10:00,68.6,61.0,30.21,NNW,338,2.0,9.0,77,0.00,,,0.00,weatherlink.com 1.10,2013-09-27 15:10:00,
2013-09-27 11:25:00,68.3,60.0,30.21,East,96,3.0,9.0,75,0.00,,,0.00,weatherlink.com 1.10,2013-09-27 15:25:00,
2013-09-27 11:40:00,69.4,62.0,30.21,ENE,66,4.0,9.0,76,0.00,,,0.00,weatherlink.com 1.10,2013-09-27 15:40:00,
2013-09-27 11:55:00,70.1,60.0,30.21,ESE,104,1.0,9.0,71,0.00,,,0.00,weatherlink.com 1.10,2013-09-27 15:55:00,
2013-09-27 12:10:00,70.6,61.0,30.21,ENE,76,3.0,10.0,72,0.00,,,0.00,weatherlink.com 1.10,2013-09-27 16:10:00,
2013-09-27 12:25:00,70.1,59.0,30.20,ESE,107,4.0,10.0,68,0.00,,,0.00,weatherlink.com 1.10,2013-09-27 16:25:00,
2013-09-27 12:40:00,71.1,59.0,30.20,ESE,107,1.0,11.0,66,0.00,,,0.00,weatherlink.com 1.10,2013-09-27 16:40:00,
2013-09-27 12:55:00,71.5,59.0,30.20,East,98,6.0,10.0,66,0.00,,,0.00,weatherlink.com 1.10,2013-09-27 16:55:00,
2013-09-27 13:10:00,72.0,60.0,30.19,East,101,4.0,10.0,65,0.00,,,0.00,weatherlink.com 1.10,2013-09-27 17:10:00,
2013-09-27 13:26:00,72.1,57.0,30.19,ESE,118,6.0,11.0,60,0.00,,,0.00,weatherlink.com 1.10,2013-09-27 17:26:00,
2013-09-27 13:41:00,72.7,59.0,30.19,ESE,116,9.0,10.0,63,0.00,,,0.00,weatherlink.com 1.10,2013-09-27 17:41:00,
2013-09-27 13:56:00,71.7,58.0,30.19,NE,55,4.0,8.0,62,0.00,,,0.00,weatherlink.com 1.10,2013-09-27 17:56:00,
2013-09-27 14:11:00,73.7,60.0,30.18,ENE,61,5.0,8.0,62,0.00,,,0.00,weatherlink.com 1.10,2013-09-27 18:11:00,
2013-09-27 14:26:00,71.7,58.0,30.18,ENE,70,2.0,11.0,63,0.00,,,0.00,weatherlink.com 1.10,2013-09-27 18:26:00,
2013-09-27 14:41:00,71.8,59.0,30.17,ENE,69,3.0,9.0,64,0.00,,,0.00,weatherlink.com 1.10,2013-09-27 18:41:00,
2013-09-27 14:56:00,71.2,59.0,30.17,West,273,1.0,6.0,65,0.00,,,0.00,weatherlink.com 1.10,2013-09-27 18:56:00,
2013-09-27 15:11:00,73.7,59.0,30.16,ENE,78,3.0,9.0,60,0.00,,,0.00,weatherlink.com 1.10,2013-09-27 19:11:00,
2013-09-27 15:26:00,74.1,60.0,30.16,SE,131,4.0,11.0,61,0.00,,,0.00,weatherlink.com 1.10,2013-09-27 19:26:00,
2013-09-27 15:41:00,74.0,59.0,30.16,ESE,113,4.0,10.0,60,0.00,,,0.00,weatherlink.com 1.10,2013-09-27 19:41:00,
2013-09-27 15:56:00,74.0,58.0,30.16,East,82,4.0,11.0,58,0.00,,,0.00,weatherlink.com 1.10,2013-09-27 19:56:00,
2013-09-27 16:11:00,74.2,58.0,30.15,ESE,105,4.0,9.0,57,0.00,,,0.00,weatherlink.com 1.10,2013-09-27 20:11:00,
2013-09-27 16:26:00,73.5,57.0,30.15,ENE,76,2.0,7.0,57,0.00,,,0.00,weatherlink.com 1.10,2013-09-27 20:26:00,
2013-09-27 16:41:00,73.0,57.0,30.14,ESE,120,8.0,9.0,58,0.00,,,0.00,weatherlink.com 1.10,2013-09-27 20:41:00,
2013-09-27 16:56:00,73.0,58.0,30.15,ESE,108,1.0,7.0,60,0.00,,,0.00,weatherlink.com 1.10,2013-09-27 20:56:00,
2013-09-27 17:11:00,72.9,59.0,30.14,SE,127,4.0,9.0,61,0.00,,,0.00,weatherlink.com 1.10,2013-09-27 21:11:00,
2013-09-27 17:26:00,71.2,59.0,30.15,ESE,116,2.0,11.0,66,0.00,,,0.00,weatherlink.com 1.10,2013-09-27 21:26:00,
2013-09-27 17:41:00,70.3,60.0,30.15,ESE,121,7.0,9.0,69,0.00,,,0.00,weatherlink.com 1.10,2013-09-27 21:41:00,
2013-09-27 17:56:00,69.5,59.0,30.14,ESE,109,3.0,12.0,70,0.00,,,0.00,weatherlink.com 1.10,2013-09-27 21:56:00,
2013-09-27 18:11:00,68.8,59.0,30.14,ESE,115,6.0,7.0,72,0.00,,,0.00,weatherlink.com 1.10,2013-09-27 22:11:00,
2013-09-27 18:26:00,67.7,59.0,30.15,SE,141,4.0,11.0,73,0.00,,,0.00,weatherlink.com 1.10,2013-09-27 22:26:00,
2013-09-27 18:41:00,66.6,58.0,30.16,SE,141,2.0,9.0,75,0.00,,,0.00,weatherlink.com 1.10,2013-09-27 22:41:00,
2013-09-27 18:56:00,65.2,58.0,30.16,ESE,122,1.0,9.0,78,0.00,,,0.00,weatherlink.com 1.10,2013-09-27 22:56:00,
2013-09-27 19:11:00,63.7,57.0,30.16,ENE,69,3.0,7.0,78,0.00,,,0.00,weatherlink.com 1.10,2013-09-27 23:11:00,
2013-09-27 19:26:00,61.9,56.0,30.15,SSE,150,1.0,4.0,81,0.00,,,0.00,weatherlink.com 1.10,2013-09-27 23:26:00,
2013-09-27 19:41:00,60.3,56.0,30.15,ESE,107,1.0,3.0,84,0.00,,,0.00,weatherlink.com 1.10,2013-09-27 23:41:00,
2013-09-27 19:57:00,59.4,55.0,30.15,SSE,150,1.0,3.0,86,0.00,,,0.00,weatherlink.com 1.10,2013-09-27 23:57:00,
2013-09-27 20:15:00,57.9,54.0,30.15,SE,125,0.0,3.0,88,0.00,,,0.00,weatherlink.com 1.10,2013-09-28 00:15:00,
2013-09-27 20:32:00,56.2,54.0,30.15,SE,125,0.0,1.0,93,0.00,,,0.00,weatherlink.com 1.10,2013-09-28 00:32:00,
2013-09-27 20:48:00,55.5,54.0,30.15,SE,125,0.0,1.0,94,0.00,,,0.00,weatherlink.com 1.10,2013-09-28 00:48:00,
2013-09-27 21:03:00,55.0,54.0,30.15,SE,125,0.0,1.0,95,0.00,,,0.00,weatherlink.com 1.10,2013-09-28 01:03:00,
2013-09-27 21:18:00,54.4,53.0,30.16,SE,125,0.0,0.0,96,0.00,,,0.00,weatherlink.com 1.10,2013-09-28 01:18:00,
2013-09-27 21:33:00,53.9,53.0,30.16,SE,125,0.0,1.0,96,0.00,,,0.00,weatherlink.com 1.10,2013-09-28 01:33:00,
2013-09-27 21:48:00,53.5,53.0,30.16,SE,125,0.0,0.0,97,0.00,,,0.00,weatherlink.com 1.10,2013-09-28 01:48:00,
2013-09-27 22:05:00,52.6,52.0,30.17,SE,125,0.0,0.0,97,0.00,,,0.00,weatherlink.com 1.10,2013-09-28 02:05:00,
2013-09-27 22:21:00,52.2,51.0,30.17,SE,125,0.0,1.0,97,0.00,,,0.00,weatherlink.com 1.10,2013-09-28 02:21:00,
2013-09-27 22:36:00,51.8,51.0,30.17,SE,125,0.0,0.0,97,0.00,,,0.00,weatherlink.com 1.10,2013-09-28 02:36:00,
2013-09-27 22:51:00,51.2,50.0,30.17,SE,125,1.0,1.0,97,0.00,,,0.00,weatherlink.com 1.10,2013-09-28 02:51:00,
2013-09-27 23:06:00,50.7,50.0,30.17,SE,125,0.0,1.0,97,0.00,,,0.00,weatherlink.com 1.10,2013-09-28 03:06:00,
2013-09-27 23:21:00,50.3,50.0,30.17,SE,125,0.0,1.0,97,0.00,,,0.00,weatherlink.com 1.10,2013-09-28 03:21:00,
2013-09-27 23:36:00,50.7,50.0,30.16,SE,125,0.0,1.0,98,0.00,,,0.00,weatherlink.com 1.10,2013-09-28 03:36:00,
2013-09-27 23:51:00,49.9,49.0,30.16,SE,125,0.0,1.0,98,0.00,,,0.00,weatherlink.com 1.10,2013-09-28 03:51:00,